カタログに戻る

STARLINK-36728

運用中通信VLEO
NORAD 67927·PAYLOAD·🇺🇸 United States

打ち上げ Feb 22, 2026 から Vandenberg Space Force Base

Loading…

次のパス (今後24時間)

TLE

最新Source: CelesTrak SupGP

元期: Sep 14, 2026, 22:50 UTC

1 67927C 26036Z   26257.95187500  .00029731  00000+0  10771-2 0  2571
2 67927  43.0023 256.3017 0001393 259.0788 275.4677 15.27555146    14

AllMySatでSTARLINK-36728をリアルタイム追跡

Download on the App Store